EWG25EL EDDF-EDDS

Flight info

Callsign EWG25EL
Flight time 0h 24m
Altitude 21000
Route ANEKI2L/18 ANEKI Y163 NEKLO Y171 INKAM N850 KRH T128 BADSO BADSO2A
Aircraft SU95/M-SDE3GILORVW/S

Departure

Time 2026-05-07 19:05
Airport Frankfurt Main Airport (EDDF)

Arrival

Time 2026-05-07 19:29
Airport Stuttgart Airport (EDDS)
Time Latitude Longitude Altitude Speed Heading
2026-05-07 18:33 50.04432 8.56331 363 ft 0 kts 170°
2026-05-07 18:49 50.04441 8.56328 360 ft 0 kts 170°
2026-05-07 18:49 50.04454 8.56325 361 ft 1 kts 171°
2026-05-07 18:50 50.04479 8.56318 360 ft 4 kts 174°
2026-05-07 18:50 50.04493 8.56322 361 ft 2 kts 208°
2026-05-07 18:50 50.04500 8.56331 364 ft 2 kts 229°
2026-05-07 18:50 50.04506 8.56345 364 ft 3 kts 247°
2026-05-07 18:51 50.04512 8.56371 364 ft 3 kts 250°
2026-05-07 18:51 50.04518 8.56398 362 ft 3 kts 249°
2026-05-07 18:51 50.04521 8.56408 360 ft 0 kts 250°
2026-05-07 18:54 50.04521 8.56407 360 ft 1 kts 250°
2026-05-07 18:54 50.04514 8.56377 364 ft 6 kts 250°
2026-05-07 18:55 50.04502 8.56327 365 ft 0 kts 250°
2026-05-07 18:55 50.04493 8.56289 362 ft 7 kts 250°
2026-05-07 18:55 50.04475 8.56210 360 ft 9 kts 250°
2026-05-07 18:55 50.04453 8.56117 360 ft 10 kts 249°
2026-05-07 18:56 50.04437 8.56053 361 ft 1 kts 239°
2026-05-07 18:56 50.04428 8.56038 359 ft 3 kts 219°
2026-05-07 18:56 50.04386 8.56031 358 ft 8 kts 164°
2026-05-07 18:56 50.04328 8.56064 360 ft 10 kts 160°
2026-05-07 18:57 50.04287 8.56141 358 ft 10 kts 85°
2026-05-07 18:57 50.04292 8.56197 358 ft 5 kts 94°
2026-05-07 18:57 50.04266 8.56225 360 ft 6 kts 167°
2026-05-07 18:57 50.04223 8.56247 360 ft 7 kts 156°
2026-05-07 18:58 50.04169 8.56280 360 ft 9 kts 165°
2026-05-07 18:58 50.04117 8.56237 358 ft 10 kts 254°
2026-05-07 18:58 50.04092 8.56128 361 ft 11 kts 250°
2026-05-07 18:58 50.04062 8.56007 359 ft 13 kts 249°
2026-05-07 18:59 50.04031 8.55874 359 ft 14 kts 251°
2026-05-07 18:59 50.03997 8.55732 357 ft 15 kts 248°
2026-05-07 18:59 50.03961 8.55583 362 ft 15 kts 249°
2026-05-07 18:59 50.03923 8.55425 357 ft 16 kts 249°
2026-05-07 19:00 50.03883 8.55257 358 ft 17 kts 250°
2026-05-07 19:00 50.03842 8.55080 359 ft 18 kts 249°
2026-05-07 19:00 50.03797 8.54897 358 ft 18 kts 250°
2026-05-07 19:00 50.03752 8.54708 357 ft 19 kts 250°
2026-05-07 19:01 50.03706 8.54514 359 ft 19 kts 248°
2026-05-07 19:01 50.03659 8.54317 363 ft 20 kts 250°
2026-05-07 19:01 50.03610 8.54114 358 ft 20 kts 249°
2026-05-07 19:01 50.03560 8.53906 359 ft 21 kts 250°
2026-05-07 19:02 50.03509 8.53692 357 ft 21 kts 249°
2026-05-07 19:02 50.03462 8.53494 362 ft 9 kts 250°
2026-05-07 19:02 50.03440 8.53400 358 ft 10 kts 249°
2026-05-07 19:02 50.03414 8.53293 357 ft 11 kts 250°
2026-05-07 19:03 50.03388 8.53180 362 ft 11 kts 250°
2026-05-07 19:03 50.03360 8.53061 363 ft 12 kts 249°
2026-05-07 19:03 50.03329 8.52936 364 ft 13 kts 250°
2026-05-07 19:03 50.03303 8.52825 363 ft 10 kts 250°
2026-05-07 19:04 50.03278 8.52717 360 ft 11 kts 249°
2026-05-07 19:04 50.03232 8.52621 358 ft 12 kts 215°
2026-05-07 19:04 50.03191 8.52594 361 ft 2 kts 180°
2026-05-07 19:04 50.03190 8.52594 360 ft 0 kts 177°
2026-05-07 19:05 50.03059 8.52599 356 ft 59 kts 181°
2026-05-07 19:05 50.02348 8.52604 361 ft 140 kts 179°
2026-05-07 19:05 50.01177 8.52618 622 ft 186 kts 180°
2026-05-07 19:05 49.99774 8.52619 1181 ft 219 kts 181°
2026-05-07 19:06 49.98136 8.52579 1862 ft 250 kts 181°
2026-05-07 19:06 49.94312 8.52746 3504 ft 296 kts 176°
2026-05-07 19:06 49.92161 8.52982 3958 ft 327 kts 176°
2026-05-07 19:07 49.89961 8.53215 4548 ft 304 kts 177°
2026-05-07 19:07 49.87916 8.53422 5010 ft 287 kts 177°
2026-05-07 19:07 49.85925 8.53621 5498 ft 290 kts 177°
2026-05-07 19:07 49.83837 8.53828 6032 ft 312 kts 177°
2026-05-07 19:08 49.81598 8.54003 6610 ft 322 kts 179°
2026-05-07 19:08 49.79479 8.54077 7110 ft 289 kts 181°
2026-05-07 19:08 49.77532 8.53908 7507 ft 273 kts 185°
2026-05-07 19:08 49.75628 8.53682 7882 ft 279 kts 185°
2026-05-07 19:09 49.73612 8.53465 8301 ft 303 kts 185°
2026-05-07 19:09 49.71459 8.53266 8760 ft 314 kts 184°
2026-05-07 19:09 49.69384 8.53087 9118 ft 286 kts 185°
2026-05-07 19:09 49.67406 8.52816 9053 ft 286 kts 187°
2026-05-07 19:10 49.65414 8.52492 9292 ft 289 kts 187°
2026-05-07 19:10 49.63403 8.52181 10126 ft 290 kts 186°
2026-05-07 19:10 49.61355 8.51883 10847 ft 307 kts 186°
2026-05-07 19:10 49.59137 8.51578 11340 ft 327 kts 186°
2026-05-07 19:11 49.56852 8.51275 12218 ft 332 kts 185°
2026-05-07 19:11 49.54538 8.50972 13131 ft 336 kts 185°
2026-05-07 19:11 49.52186 8.50665 14012 ft 341 kts 185°
2026-05-07 19:11 49.49834 8.50363 14863 ft 345 kts 185°
2026-05-07 19:12 49.47426 8.50058 15701 ft 350 kts 185°
2026-05-07 19:12 49.44984 8.49744 16513 ft 354 kts 185°
2026-05-07 19:12 49.42504 8.49418 17165 ft 361 kts 185°
2026-05-07 19:12 49.40003 8.49199 17009 ft 360 kts 176°
2026-05-07 19:13 49.37587 8.50063 17000 ft 358 kts 156°
2026-05-07 19:13 49.35499 8.52144 17001 ft 360 kts 136°
2026-05-07 19:13 49.33842 8.55032 17000 ft 361 kts 130°
2026-05-07 19:13 49.32258 8.58017 17000 ft 360 kts 129°
2026-05-07 19:14 49.30686 8.61010 17000 ft 360 kts 129°
2026-05-07 19:14 49.29111 8.63997 17000 ft 360 kts 129°
2026-05-07 19:14 49.27531 8.66978 17000 ft 360 kts 129°
2026-05-07 19:14 49.25945 8.69955 16999 ft 360 kts 129°
2026-05-07 19:15 49.24361 8.72920 16849 ft 358 kts 129°
2026-05-07 19:15 49.22802 8.75833 16452 ft 356 kts 129°
2026-05-07 19:15 49.21233 8.78759 15945 ft 354 kts 129°
2026-05-07 19:15 49.19679 8.81655 15416 ft 352 kts 129°
2026-05-07 19:16 49.18131 8.84536 14901 ft 349 kts 130°
2026-05-07 19:16 49.16591 8.87399 14397 ft 346 kts 130°
2026-05-07 19:16 49.15064 8.90236 13893 ft 344 kts 130°
2026-05-07 19:16 49.13543 8.93056 13391 ft 341 kts 130°
2026-05-07 19:17 49.12040 8.95842 12882 ft 339 kts 130°
2026-05-07 19:17 49.10545 8.98612 12398 ft 336 kts 130°
2026-05-07 19:17 49.09078 9.01325 11904 ft 334 kts 130°
2026-05-07 19:17 49.07605 9.04047 11432 ft 332 kts 130°
2026-05-07 19:18 49.06146 9.06742 11105 ft 327 kts 130°
2026-05-07 19:18 49.04688 9.09430 11006 ft 330 kts 130°
2026-05-07 19:18 49.03221 9.12133 10990 ft 330 kts 130°
2026-05-07 19:18 49.01763 9.14816 10795 ft 328 kts 130°
2026-05-07 19:19 49.00312 9.17482 10385 ft 326 kts 130°
2026-05-07 19:19 48.98880 9.20114 10103 ft 317 kts 130°
2026-05-07 19:19 48.97500 9.22647 9979 ft 304 kts 130°
2026-05-07 19:19 48.96380 9.25305 9835 ft 292 kts 115°
2026-05-07 19:20 48.95564 9.28114 9497 ft 289 kts 114°
2026-05-07 19:20 48.94775 9.30878 9123 ft 287 kts 114°
2026-05-07 19:20 48.93979 9.33666 8734 ft 286 kts 114°
2026-05-07 19:20 48.93188 9.36435 8351 ft 285 kts 114°
2026-05-07 19:21 48.92402 9.39185 7972 ft 283 kts 114°
2026-05-07 19:21 48.91618 9.41923 7591 ft 282 kts 114°
2026-05-07 19:21 48.90839 9.44641 7217 ft 280 kts 114°
2026-05-07 19:21 48.89736 9.47031 6843 ft 276 kts 141°
2026-05-07 19:22 48.88092 9.48349 6703 ft 263 kts 162°
2026-05-07 19:22 48.86374 9.49152 6488 ft 253 kts 163°
2026-05-07 19:22 48.84713 9.49912 6193 ft 247 kts 163°
2026-05-07 19:22 48.83105 9.50647 6052 ft 234 kts 163°
2026-05-07 19:23 48.81588 9.51341 5922 ft 222 kts 163°
2026-05-07 19:23 48.80125 9.52009 5629 ft 218 kts 163°
2026-05-07 19:23 48.78674 9.52674 5261 ft 218 kts 163°
2026-05-07 19:23 48.77219 9.53340 4885 ft 218 kts 163°
2026-05-07 19:24 48.75758 9.53983 4509 ft 219 kts 170°
2026-05-07 19:24 48.74319 9.53649 4141 ft 214 kts 213°
2026-05-07 19:24 48.73470 9.51957 3950 ft 198 kts 260°
2026-05-07 19:24 48.73400 9.49992 3941 ft 174 kts 271°
2026-05-07 19:25 48.73421 9.48288 3937 ft 154 kts 271°
2026-05-07 19:25 48.73408 9.46634 3944 ft 157 kts 266°
2026-05-07 19:25 48.73256 9.45014 3892 ft 155 kts 258°
2026-05-07 19:25 48.73002 9.43412 3727 ft 157 kts 255°
2026-05-07 19:26 48.72708 9.41843 3525 ft 154 kts 254°
2026-05-07 19:26 48.72418 9.40306 3321 ft 153 kts 254°
2026-05-07 19:26 48.72125 9.38754 3117 ft 153 kts 254°
2026-05-07 19:26 48.71833 9.37210 2914 ft 152 kts 254°
2026-05-07 19:27 48.71541 9.35671 2719 ft 152 kts 254°
2026-05-07 19:27 48.71250 9.34135 2506 ft 151 kts 254°
2026-05-07 19:27 48.70960 9.32602 2311 ft 151 kts 254°
2026-05-07 19:27 48.70673 9.31091 2096 ft 150 kts 254°
2026-05-07 19:28 48.70373 9.29575 1873 ft 150 kts 253°
2026-05-07 19:28 48.70081 9.28062 1716 ft 151 kts 257°
2026-05-07 19:28 48.69808 9.26538 1526 ft 150 kts 252°
2026-05-07 19:28 48.69519 9.25024 1370 ft 150 kts 255°
2026-05-07 19:29 48.69238 9.23519 1283 ft 143 kts 254°
2026-05-07 19:29 48.69012 9.22321 1283 ft 89 kts 254°
2026-05-07 19:29 48.68882 9.21648 1283 ft 51 kts 254°
2026-05-07 19:29 48.68811 9.21256 1283 ft 19 kts 264°
2026-05-07 19:30 48.68815 9.21133 1283 ft 11 kts 275°
2026-05-07 19:30 48.68829 9.21016 1283 ft 5 kts 284°
2026-05-07 19:30 48.68838 9.20960 1283 ft 6 kts 284°
2026-05-07 19:30 48.68851 9.20887 1285 ft 8 kts 284°
2026-05-07 19:31 48.68866 9.20798 1283 ft 10 kts 285°
2026-05-07 19:31 48.68878 9.20693 1283 ft 11 kts 263°
2026-05-07 19:31 48.68857 9.20577 1284 ft 12 kts 253°
2026-05-07 19:31 48.68833 9.20449 1283 ft 13 kts 255°
2026-05-07 19:32 48.68806 9.20310 1283 ft 14 kts 253°
2026-05-07 19:32 48.68778 9.20161 1283 ft 15 kts 254°
2026-05-07 19:32 48.68756 9.20033 1284 ft 10 kts 270°
2026-05-07 19:32 48.68795 9.19948 1283 ft 11 kts 315°
2026-05-07 19:33 48.68839 9.19888 1283 ft 8 kts 334°
2026-05-07 19:33 48.68889 9.19844 1283 ft 9 kts 288°
2026-05-07 19:33 48.68875 9.19750 1284 ft 10 kts 254°
2026-05-07 19:33 48.68854 9.19642 1283 ft 11 kts 254°
2026-05-07 19:34 48.68831 9.19523 1284 ft 7 kts 253°
2026-05-07 19:34 48.68832 9.19456 1282 ft 6 kts 333°
2026-05-07 19:34 48.68867 9.19442 1282 ft 2 kts 345°
2026-05-07 19:34 48.68885 9.19434 1284 ft 4 kts 344°
2026-05-07 19:35 48.68890 9.19432 1282 ft 0 kts 344°